Location: Chervonnoye
(48.6000°N, 34.4000°E)
Time: 01:41:19
(UTC+00:00)

NOAA 15 - Pass Details

Date: 01 December 2021
Orbit: 797 x 812 km, 98.7° (Epoch: 17 January)

Event Time Altitude Azimuth Distance (km) Brightness Sun altitude
Rises 03:59:07 0° 31° (NNE) 3,320 8.0 -11.8°
Reaches altitude 10° 04:02:54 10° 59° (ENE) 2,380 7.6 -11.2°
Maximum altitude 04:05:15 13° 86° (E) 2,173 7.9 -10.9°
Drops below altitude 10° 04:07:35 10° 113° (ESE) 2,370 8.7 -10.5°
Sets 04:11:19 0° 141° (SE) 3,292 9.0 -9.9°
